Regional Weather Roundup
Issued by NWS Jackson, KY

Home | Current Version | Previous Version | Graphics & Text | Print | Product List | Glossary On
Versions: 1 2 3 4 5 6 7 8 9 10 11 12 13 14 15 16 17 18 19 20 21 22 23 24 25 26 27 28 29 30 31 32 33 34 35 36 37 38 39 40 41 42 43 44 45 46 47 48 49 50
000
ASUS43 KJKL 070110
RWRJKL

EAST KENTUCKY HOURLY WEATHER ROUNDUP
NATIONAL WEATHER SERVICE JACKSON KY
900 PM EDT MON JUL 06 2015

NOTE: "FAIR" INDICATES FEW OR NO CLOUDS BELOW 12,000 FEET WITH
NO SIGNIFICANT WEATHER AND/OR OBSTRUCTIONS TO VISIBILITY.

* THESE REPORTS ARE NOT UNDER NWS QUALITY CONTROL AND MAY NOT
  REPORT WEATHER SUCH AS PRECIPITATION AND FOG.

KYZ079-080-083-085-087-088-110-112-115-119-120-070200
...EASTERN KENTUCKY...

CITY           SKY/WX    TMP DP  RH WIND       PRES   REMARKS
JACKSON        CLEAR     74  68  81 CALM      30.07F
LONDON         CLEAR     78  67  68 CALM      30.07S
SOMERSET*      CLEAR     77  66  69 CALM      30.06F
MONTICELLO*    CLEAR     77  73  87 CALM      30.08S
MIDDLESBORO*   CLEAR     75  70  85 NW3       30.09R
HARLAN APT*      N/A     72  68  88 CALM      30.10S
HAZARD APT*    CLEAR     75  70  83 CALM      30.07S
PIKEVILLE APT* CLEAR     73  68  83 SE5       30.09S
BIG SANDY*     CLEAR     76  69  80 CALM      30.07F
MOREHEAD APT*  CLEAR     75  68  78 S5        30.06S
$$

KYZ035-036-041-042-044-050-067-078-099-070200
...CENTRAL KENTUCKY...

CITY           SKY/WX    TMP DP  RH WIND       PRES   REMARKS
MT STERLING*   CLEAR     75  70  83 SW3       30.06S
FLEMING/MASON* MOCLDY    77  68  73 S3        30.04F
DANVILLE*      CLEAR     77  68  73 CALM      30.05
RICHMOND*      CLEAR     77  68  73 CALM      30.05S
LEXINGTON      CLEAR     77  69  76 S6        30.03F
FRANKFORT      CLEAR     79  68  69 S8        30.01S
$$

KYZ091>093-OHZ055-061-077-WVZ005-015-034-035-042-070200
...SOUTHERN OHIO/WEST VIRGINIA...

CITY           SKY/WX    TMP DP  RH WIND       PRES   REMARKS
COVINGTON      MOCLDY    78  68  71 S5        30.00F HAZE
COLUMBUS       PTCLDY    78  60  53 SW7       30.00S
DAYTON         PTCLDY    79  65  62 S5        30.01S
WILMINGTON     CLEAR     75  65  70 S5        30.01F HAZE
HUNTINGTON     CLEAR     75  67  76 CALM      30.03S
CHARLESTON     PTCLDY    74  67  78 S3        30.05F
PINEVILLE*     CLEAR     69  69 100 MISG      30.16S FOG
BECKLEY        PTCLDY    68  63  84 SW5       30.15F
BLUEFIELD      CLEAR     68  63  84 CALM      30.17F
$$

VAZ002-007-008-TNZ017-027-036-066-071-070200
...SOUTHWEST VIRGINIA/EAST TENNESSEE...

CITY           SKY/WX    TMP DP  RH WIND       PRES   REMARKS
WISE*          CLEAR     70  61  73 S3        30.17S
JONESVILLE*      N/A    N/A N/A N/A MISG        N/A
ABINGDON*      CLEAR     73  68  86 CALM      30.14S
BRISTOL        PTCLDY    76  65  68 S3        30.10F
KNOXVILLE      CLEAR     79  69  71 SW6       30.06F
OAK RIDGE      CLEAR     80  69  69 CALM      30.07F
CROSSVILLE     CLEAR     74  67  78 SW3       30.12F
NASHVILLE      PTCLDY    81  72  74 S6        30.03S
$$

...KEY TO REMARKS...
VSB - VISIBILITY IN MILES
WCI - WIND CHILL INDEX
HX  - HEAT INDEX

$$


USA.gov is the U.S. government's official web portal to all federal, state and local government web resources and services.